FW2446 Weather Reports


time (UTC)temp
F
wind
direction
speed
knots
gust
knots
rain 1hr
in
rain 24hr
in
rain mn
in
humidity
%
barometer
mb
20260505193030 75 315 1.7 6.1 0.00 0.00 0.00 50 1014.8
20260505191531 74 310 2.6 6.1 0.00 0.00 0.00 52 1014.9
20260505190105 73 302 2.6 7.0 0.00 0.00 0.00 53 1014.9
20260505184606 72 302 2.6 7.8 0.00 0.00 0.00 54 1015.1
20260505183030 71 299 2.6 7.0 0.00 0.00 0.00 55 1015.1
20260505181530 71 296 3.5 8.7 0.00 0.00 0.00 55 1015.1
20260505180030 71 295 3.5 7.8 0.00 0.00 0.00 57 1015.0
20260505174646 69 306 2.6 7.0 0.00 0.00 0.00 59 1015.1
20260505171531 68 316 2.6 7.0 0.00 0.00 0.00 61 1015.0
20260505170029 67 310 2.6 9.6 0.00 0.00 0.00 62 1015.0
20260505164531 66 308 2.6 7.8 0.00 0.00 0.00 62 1014.9
20260505163029 66 318 2.6 7.0 0.00 0.00 0.00 63 1015.0
20260505153031 63 141 0.9 3.5 0.00 0.00 0.00 67 1014.8
20260505151530 62 153 0.9 3.5 0.00 0.00 0.00 69 1014.7
20260505124607 55 303 0.0 3.5 0.00 0.00 0.00 78 1013.2
20260505123032 56 337 0.0 0.9 0.00 0.00 0.00 75 1013.2
20260505121532 57 293 0.0 4.3 0.00 0.00 0.00 73 1013.0
20260505120030 59 299 0.9 5.2 0.00 0.00 0.00 73 1012.9
20260505114533 58 294 1.7 7.8 0.00 0.00 0.00 73 1012.9
20260505113107 58 306 1.7 6.1 0.00 0.00 0.00 74 1012.8
20260505111533 58 300 0.9 4.3 0.00 0.00 0.00 74 1012.6
20260505101532 60 301 1.7 6.1 0.00 0.00 0.00 71 1012.2
20260505100037 60 307 0.0 4.3 0.00 0.00 0.00 71 1012.2
20260505094606 61 296 1.7 5.2 0.00 0.00 0.00 70 1012.1
20260505093031 61 293 1.7 4.3 0.00 0.00 0.00 70 1012.0
20260505091530 61 305 0.9 5.2 0.00 0.00 0.00 69 1011.9
20260505090107 61 292 0.9 6.1 0.00 0.00 0.00 69 1011.9
20260505083030 62 287 0.9 3.5 0.00 0.00 0.00 68 1011.9
20260505081532 62 320 0.0 3.5 0.00 0.00 0.00 67 1011.9
20260505080028 63 287 0.0 3.5 0.00 0.00 0.00 65 1011.9
20260505074531 64 297 0.9 5.2 0.00 0.00 0.00 65 1011.7
20260505073031 64 298 1.7 7.0 0.00 0.00 0.00 64 1011.5
20260505071532 64 298 1.7 6.1 0.00 0.00 0.00 63 1011.5
20260505070032 65 289 1.7 5.2 0.00 0.00 0.00 62 1011.5
20260505064646 65 285 1.7 7.0 0.00 0.00 0.00 61 1011.3
20260505063030 66 297 2.6 7.8 0.00 0.00 0.00 60 1011.2
20260505061533 66 295 3.5 10.4 0.00 0.00 0.00 59 1011.1
20260505060031 67 297 3.5 7.0 0.00 0.00 0.00 57 1011.0
20260505051532 68 294 3.5 10.4 0.00 0.00 0.00 52 1010.8
20260505041530 70 282 5.2 13.0 0.00 0.00 0.00 48 1010.1
20260505040046 70 279 4.3 12.2 0.00 0.00 0.00 48 1009.9
20260505034528 70 287 4.3 8.7 0.00 0.00 0.00 48 1009.8
20260505033030 70 280 3.5 10.4 0.00 0.00 0.00 48 1009.5
20260505031529 71 289 3.5 11.3 0.00 0.00 0.00 47 1009.4
20260505030105 72 290 4.3 12.2 0.00 0.00 0.00 46 1009.3
20260505024605 72 287 3.5 9.6 0.00 0.00 0.00 45 1009.2
20260505023031 74 281 2.6 9.6 0.00 0.00 0.00 43 1009.1
20260505020145 76 286 4.3 9.6 0.00 0.00 0.00 41 1009.2
20260505014532 76 284 2.6 7.8 0.00 0.00 0.00 41 1009.1
20260505013030 77 292 3.5 8.7 0.00 0.00 0.00 40 1009.1
20260505011532 78 290 3.5 6.1 0.00 0.00 0.00 39 1009.1
20260505010033 78 294 4.3 10.4 0.00 0.00 0.00 40 1009.0
20260505004607 78 294 3.5 12.2 0.00 0.00 0.00 42 1009.0
20260505003032 78 296 4.3 10.4 0.00 0.00 0.00 42 1009.1
20260505001529 79 304 3.5 8.7 0.00 0.00 0.00 41 1009.2
20260505000030 79 297 4.3 8.7 0.00 0.00 0.00 42 1009.2
20260504234531 80 299 3.5 8.7 0.00 0.00 0.00 42 1009.1
20260504233031 80 299 3.5 9.6 0.00 0.00 0.00 42 1009.2
20260504231529 81 295 3.5 12.2 0.00 0.00 0.00 42 1009.3
20260504230031 82 302 2.6 4.3 0.00 0.00 0.00 42 1009.5
20260504224531 81 307 2.6 9.6 0.00 0.00 0.00 43 1009.7
20260504221530 81 309 2.6 7.8 0.00 0.00 0.00 44 1009.9
20260504220031 80 312 2.6 11.3 0.00 0.00 0.00 47 1010.0
20260504214530 79 313 2.6 7.0 0.00 0.00 0.00 47 1010.3
20260504213031 80 312 2.6 7.0 0.00 0.00 0.00 48 1010.4
20260504211531 81 315 1.7 6.1 0.00 0.00 0.00 46 1010.5
20260504210030 82 318 1.7 5.2 0.00 0.00 0.00 43 1010.7
20260504204645 82 319 0.9 4.3 0.00 0.00 0.00 43 1010.8
20260504203031 82 322 0.9 3.5 0.00 0.00 0.00 44 1011.0
20260504201529 81 315 1.7 5.2 0.00 0.00 0.00 44 1011.1
20260504200032 80 312 2.6 6.1 0.00 0.00 0.00 45 1011.2